Flag for U.S.A. Weather past 2 weeks in Denver, Colorado, U.S.A.

20 °F


Feels Like: 20 °F
Forecast: 15 / 29 °F
Wind: 2 mph from Northeast

Location: Buckley Air Force Base

Current Time: Nov 28, 2015 at 8:45:07 PM

Latest Report: Nov 28, 2015 at 7:58 PM

Visibility: 10 mi

Pressure: 30.31 "Hg (24.70 "Hg at 1593m altitude)

Humidity: 89%

Dew point: 17 °F

Location of DenverLocation

Historic Weather in Denver — Graph


Denver temperature yesterday

Maximum temperature yesterday: 19 °F (at 9:58 PM)
Minimum temperature yesterday: 5 °F (at 5:58 AM)
Average temperature yesterday: 14 °F

Past Weeks' High & Low Weather Summary

High64 °F (Nov 14, 1:58 PM)100% (Nov 16, 4:58 PM)30.60 "Hg (Nov 16, 4:58 PM)
Low5 °F (Nov 27, 5:58 AM)9% (Nov 15, 1:58 PM)29.36 "Hg (Nov 16, 10:58 AM)
Average34 °F60%29.98 "Hg
* Reported Nov 13 6:58 PM — Nov 28 6:58 PM, Denver, Weather by CustomWeather, © 2015

Note: Actual official high and low records may vary slightly from our data, if they occured in-between our weather recording intervals... More about our weather records


Denver weather history for previous 24 hours

Time TempWeatherWind HumidityBarometerVisibility
6:58 PM
Sat, Nov 28
20 °FOvercast.No wind86%30.31 "Hg10 mi
5:58 PM20 °FOvercast.3 mph89%30.29 "Hg10 mi
4:58 PM20 °FIce fog.6 mph87%30.28 "Hg6 mi
3:58 PM20 °FOvercast.5 mph82%30.26 "Hg7 mi
2:58 PM21 °FOvercast.3 mph79%30.26 "Hg10 mi
1:58 PM20 °FPartly sunny.3 mph78%30.25 "Hg10 mi
12:58 PM20 °FLow clouds.5 mph83%30.26 "Hg10 mi
11:58 AM20 °FCloudy.No wind85%30.28 "Hg10 mi
10:58 AM19 °FMostly cloudy.5 mph96%30.29 "Hg7 mi
9:58 AM18 °FLight snow. Ice fog.6 mph99%30.30 "Hg6 mi
8:58 AM18 °FLight snow. Ice fog.3 mph97%30.29 "Hg3 mi
7:58 AM15 °FIce fog.No wind97%30.30 "Hg2 mi
6:58 AM15 °FLight snow. Ice fog.No wind98%30.27 "Hg5 mi
5:58 AM16 °FLight snow. Mostly cloudy.3 mph99%30.27 "Hg7 mi
4:58 AM16 °FLight snow. Mostly cloudy.7 mph97%30.27 "Hg7 mi
3:58 AM16 °FLight snow. Mostly cloudy.3 mph97%30.27 "Hg10 mi
2:58 AM17 °FLight snow. Mostly cloudy.No wind99%30.29 "Hg10 mi
1:58 AM17 °FLight snow. Overcast.No wind99%30.33 "Hg10 mi
12:58 AM31 °FLight snow. Mostly cloudy.3 mph47%30.34 "Hg7 mi
10:58 PM
Fri, Nov 27
17 °FLight snow. Mostly cloudy.3 mph96%30.40 "Hg7 mi
9:58 PM19 °FLight snow. Mostly cloudy.5 mph92%30.41 "Hg10 mi
8:58 PM18 °FPassing clouds.6 mph87%30.44 "Hg10 mi
Weather by CustomWeather, © 2015

See weather overviewHow to use our weather pages